,,PA_Meas_PMT16A,,PR_Meas_QMR101_102,,RH_Meas_QMH101,,SR_Meas_QMS101,,TA_Meas_QMH101,,GenWind,,GenWind,
time,status,PA,status,PR,status,RH,status,SR,status,TA,status,DirAvg,status,SpdAvg,
2013-07-24, 00:00:04,VALID,917.961,VALID,0,VALID,93.8519,VALID,0,VALID,19.2153,VALID,139,VALID,0,
2013-07-24, 00:01:04,VALID,917.933,VALID,0,VALID,93.8976,VALID,0,VALID,19.1958,VALID,162,VALID,0,
2013-07-24, 00:02:04,VALID,917.923,VALID,0,VALID,93.8443,VALID,0,VALID,19.1568,VALID,158,VALID,0,
2013-07-24, 00:03:04,VALID,917.899,VALID,0,VALID,93.9052,VALID,0,VALID,19.1373,VALID,136,VALID,0,
2013-07-24, 00:04:04,VALID,917.918,VALID,0,VALID,94.0425,VALID,0,VALID,19.1178,VALID,161,VALID,0,
2013-07-24, 00:05:04,VALID,917.879,VALID,0,VALID,94.1644,VALID,0,VALID,19.1373,VALID,147,VALID,0,
2013-07-24, 00:06:04,VALID,917.889,VALID,0,VALID,94.1111,VALID,0,VALID,19.0983,VALID,147,VALID,0,
2013-07-24, 00:07:04,VALID,917.897,VALID,0,VALID,94.0196,VALID,0,VALID,19.0983,VALID,147,VALID,0,
2013-07-24, 00:08:04,VALID,917.867,VALID,0,VALID,93.8976,VALID,0,VALID,19.0593,VALID,147,VALID,0,
2013-07-24, 00:09:04,VALID,917.845,VALID,0,VALID,93.9586,VALID,0,VALID,19.0593,VALID,158,VALID,0,
2013-07-24, 00:10:04,VALID,917.823,VALID,0,VALID,93.9967,VALID,0,VALID,19.0398,VALID,139,VALID,0,
2013-07-24, 00:11:04,VALID,917.813,VALID,0,VALID,94.0043,VALID,0,VALID,19.0398,VALID,172,VALID,0,
2013-07-24, 00:12:04,VALID,917.792,VALID,0,VALID,93.9129,VALID,0,VALID,19.0218,VALID,142,VALID,0,
2013-07-24, 00:13:04,VALID,917.822,VALID,0,VALID,93.9815,VALID,0,VALID,18.9619,VALID,139,VALID,0,
2013-07-24, 00:14:04,VALID,917.81,VALID,0,VALID,94.0882,VALID,0,VALID,18.9619,VALID,139,VALID,0,
2013-07-24, 00:15:04,VALID,917.851,VALID,0,VALID,94.2102,VALID,0,VALID,18.9619,VALID,171,VALID,0,
2013-07-24, 00:16:04,VALID,917.859,VALID,0,VALID,94.2864,VALID,0,VALID,18.9424,VALID,183,VALID,0,
2013-07-24, 00:17:04,VALID,917.861,VALID,0,VALID,94.2864,VALID,0,VALID,18.9424,VALID,157,VALID,0,
2013-07-24, 00:18:04,VALID,917.886,VALID,0,VALID,94.3093,VALID,0,VALID,18.9619,VALID,152,VALID,0,
2013-07-24, 00:19:04,VALID,917.883,VALID,0,VALID,94.3245,VALID,0,VALID,18.9619,VALID,140,VALID,0,
2013-07-24, 00:20:04,VALID,917.894,VALID,0,VALID,94.3321,VALID,0,VALID,18.9619,VALID,124,VALID,0,
2013-07-24, 00:21:04,VALID,917.876,VALID,0,VALID,94.3626,VALID,0,VALID,18.9619,VALID,139,VALID,0,
2013-07-24, 00:22:04,VALID,917.868,VALID,0,VALID,94.2483,VALID,0,VALID,18.9424,VALID,166,VALID,0,
2013-07-24, 00:23:04,VALID,917.864,VALID,0,VALID,94.2254,VALID,0,VALID,18.9633,VALID,135,VALID,0,
2013-07-24, 00:24:04,VALID,917.876,VALID,0,VALID,94.3245,VALID,0,VALID,18.9424,VALID,108,VALID,0,
2013-07-24, 00:25:04,VALID,917.847,VALID,0,VALID,94.3093,VALID,0,VALID,18.9424,VALID,108,VALID,0,
2013-07-24, 00:26:04,VALID,917.785,VALID,0,VALID,94.3474,VALID,0,VALID,18.9424,VALID,162,VALID,0,
2013-07-24, 00:27:04,VALID,917.813,VALID,0,VALID,94.3245,VALID,0,VALID,18.9424,VALID,162,VALID,0,
2013-07-24, 00:28:04,VALID,917.787,VALID,0,VALID,94.2864,VALID,0,VALID,18.9424,VALID,162,VALID,0,
2013-07-24, 00:29:04,VALID,917.753,VALID,0,VALID,94.3169,VALID,0,VALID,18.9424,VALID,162,VALID,0,
2013-07-24, 00:30:04,VALID,917.759,VALID,0,VALID,94.233,VALID,0,VALID,18.9619,VALID,162,VALID,0,
2013-07-24, 00:31:04,VALID,917.742,VALID,0,VALID,94.0501,VALID,0,VALID,18.9229,VALID,162,VALID,0,
2013-07-24, 00:32:04,VALID,917.715,VALID,0,VALID,93.9052,VALID,0,VALID,18.9438,VALID,162,VALID,0,
2013-07-24, 00:33:04,VALID,917.721,VALID,0,VALID,93.8443,VALID,0,VALID,18.9048,VALID,162,VALID,0,
2013-07-24, 00:34:04,VALID,917.737,VALID,0,VALID,93.8061,VALID,0,VALID,18.8449,VALID,162,VALID,0,
2013-07-24, 00:35:04,VALID,917.717,VALID,0,VALID,93.6689,VALID,0,VALID,18.7669,VALID,162,VALID,0,
2013-07-24, 00:36:04,VALID,917.687,VALID,0,VALID,93.6994,VALID,0,VALID,18.7279,VALID,162,VALID,0,
2013-07-24, 00:37:04,VALID,917.693,VALID,0,VALID,93.6079,VALID,0,VALID,18.6889,VALID,161,VALID,0,
2013-07-24, 00:38:04,VALID,917.703,VALID,0,VALID,93.9205,VALID,0,VALID,18.6694,VALID,176,VALID,0,
2013-07-24, 00:39:04,VALID,917.665,VALID,0,VALID,93.9967,VALID,0,VALID,18.6708,VALID,171,VALID,0,
2013-07-24, 00:40:04,VALID,917.685,VALID,0,VALID,93.8671,VALID,0,VALID,18.6109,VALID,146,VALID,0,
2013-07-24, 00:41:04,VALID,917.697,VALID,0,VALID,93.9052,VALID,0,VALID,18.572,VALID,143,VALID,0,
2013-07-24, 00:42:04,VALID,917.697,VALID,0,VALID,93.9891,VALID,0,VALID,18.5135,VALID,136,VALID,0,
2013-07-24, 00:43:04,VALID,917.675,VALID,0,VALID,94.3017,VALID,0,VALID,18.5135,VALID,113,VALID,0,
2013-07-24, 00:44:04,VALID,917.676,VALID,0,VALID,94.6066,VALID,0,VALID,18.5135,VALID,116,VALID,0,
2013-07-24, 00:45:04,VALID,917.694,VALID,0,VALID,94.6523,VALID,0,VALID,18.494,VALID,115,VALID,0,
2013-07-24, 00:46:04,VALID,917.684,VALID,0,VALID,94.7896,VALID,0,VALID,18.455,VALID,111,VALID,0,
2013-07-24, 00:47:04,VALID,917.662,VALID,0,VALID,94.9344,VALID,0,VALID,18.4745,VALID,105,VALID,0,
2013-07-24, 00:48:04,VALID,917.661,VALID,0,VALID,94.9801,VALID,0,VALID,18.4745,VALID,105,VALID,0,
2013-07-24, 00:49:04,VALID,917.632,VALID,0,VALID,95.1097,VALID,0,VALID,18.4745,VALID,107,VALID,0,
2013-07-24, 00:50:04,VALID,917.635,VALID,0,VALID,95.1326,VALID,0,VALID,18.4745,VALID,104,VALID,0,
2013-07-24, 00:51:04,VALID,917.617,VALID,0,VALID,95.1326,VALID,0,VALID,18.494,VALID,103,VALID,0,
2013-07-24, 00:52:04,VALID,917.617,VALID,0,VALID,95.0716,VALID,0,VALID,18.4954,VALID,109,VALID,0,
2013-07-24, 00:53:04,VALID,917.599,VALID,0,VALID,95.003,VALID,0,VALID,18.4745,VALID,106,VALID,0,
2013-07-24, 00:54:04,VALID,917.625,VALID,0,VALID,95.0259,VALID,0,VALID,18.4954,VALID,99,VALID,0,
2013-07-24, 00:55:04,VALID,917.597,VALID,0,VALID,95.1174,VALID,0,VALID,18.494,VALID,102,VALID,0,
2013-07-24, 00:56:04,VALID,917.635,VALID,0,VALID,95.0945,VALID,0,VALID,18.5135,VALID,110,VALID,0,
2013-07-24, 00:57:04,VALID,917.624,VALID,0,VALID,95.1326,VALID,0,VALID,18.5539,VALID,118,VALID,0,
2013-07-24, 00:58:04,VALID,917.597,VALID,0,VALID,95.1097,VALID,0,VALID,18.5525,VALID,128,VALID,0,
2013-07-24, 00:59:04,VALID,917.584,VALID,0,VALID,95.0259,VALID,0,VALID,18.572,VALID,127,VALID,0,
2013-07-24, 01:00:04,VALID,917.61,VALID,0,VALID,94.942,VALID,0,VALID,18.5929,VALID,125,VALID,0,
2013-07-24, 01:01:04,VALID,917.576,VALID,0,VALID,94.9573,VALID,0,VALID,18.5914,VALID,131,VALID,0,
2013-07-24, 01:02:04,VALID,917.568,VALID,0,VALID,94.881,VALID,0,VALID,18.6109,VALID,132,VALID,0,
2013-07-24, 01:03:04,VALID,917.567,VALID,0,VALID,94.7514,VALID,0,VALID,18.5914,VALID,123,VALID,0,
2013-07-24, 01:04:04,VALID,917.531,VALID,0,VALID,94.7057,VALID,0,VALID,18.6319,VALID,131,VALID,0,
2013-07-24, 01:05:04,VALID,917.551,VALID,0,VALID,94.599,VALID,0,VALID,18.6304,VALID,128,VALID,0,
2013-07-24, 01:06:04,VALID,917.542,VALID,0,VALID,94.4541,VALID,0,VALID,18.6304,VALID,131,VALID,0,
2013-07-24, 01:07:04,VALID,917.557,VALID,0,VALID,94.355,VALID,0,VALID,18.6109,VALID,128,VALID,0,
2013-07-24, 01:08:04,VALID,917.545,VALID,0,VALID,94.3855,VALID,0,VALID,18.6499,VALID,131,VALID,0,
2013-07-24, 01:09:04,VALID,917.554,VALID,0,VALID,94.3855,VALID,0,VALID,18.6708,VALID,137,VALID,0,
2013-07-24, 01:10:04,VALID,917.571,VALID,0,VALID,94.2559,VALID,0,VALID,18.6304,VALID,136,VALID,0,
2013-07-24, 01:11:04,VALID,917.533,VALID,0,VALID,94.1721,VALID,0,VALID,18.6319,VALID,139,VALID,0,
2013-07-24, 01:12:04,VALID,917.517,VALID,0,VALID,94.1187,VALID,0,VALID,18.59,VALID,139,VALID,0,
2013-07-24, 01:13:04,VALID,917.53,VALID,0,VALID,94.2483,VALID,0.107441,VALID,18.6109,VALID,138,VALID,0,
2013-07-24, 01:14:04,VALID,917.508,VALID,0,VALID,94.3855,VALID,0.107441,VALID,18.6485,VALID,130,VALID,0,
2013-07-24, 01:15:04,VALID,917.475,VALID,0,VALID,94.3474,VALID,0.107441,VALID,18.6875,VALID,140,VALID,0,
2013-07-24, 01:16:04,VALID,917.445,VALID,0,VALID,94.1721,VALID,0,VALID,18.707,VALID,152,VALID,0,
2013-07-24, 01:17:04,VALID,917.437,VALID,0,VALID,94.1416,VALID,0.107441,VALID,18.7474,VALID,143,VALID,0,
2013-07-24, 01:18:04,VALID,917.445,VALID,0,VALID,94.0348,VALID,0,VALID,18.7474,VALID,128,VALID,0,
2013-07-24, 01:19:04,VALID,917.451,VALID,0,VALID,93.9357,VALID,0,VALID,18.7279,VALID,136,VALID,0,
2013-07-24, 01:20:04,VALID,917.442,VALID,0,VALID,93.8824,VALID,0,VALID,18.7279,VALID,137,VALID,0,
2013-07-24, 01:21:04,VALID,917.44,VALID,0,VALID,93.8366,VALID,0.107441,VALID,18.6889,VALID,165,VALID,0,
2013-07-24, 01:22:04,VALID,917.479,VALID,0,VALID,93.7223,VALID,0.107441,VALID,18.6499,VALID,140,VALID,0,
2013-07-24, 01:23:04,VALID,917.426,VALID,0,VALID,93.7604,VALID,0.107441,VALID,18.6304,VALID,142,VALID,0,
2013-07-24, 01:24:04,VALID,917.407,VALID,0,VALID,93.6918,VALID,0.107441,VALID,18.6109,VALID,142,VALID,0,
2013-07-24, 01:25:04,VALID,917.387,VALID,0,VALID,93.7756,VALID,0,VALID,18.5914,VALID,142,VALID,0,
2013-07-24, 01:26:04,VALID,917.342,VALID,0,VALID,93.7909,VALID,0.107441,VALID,18.5914,VALID,142,VALID,0,
2013-07-24, 01:27:04,VALID,917.343,VALID,0,VALID,93.8747,VALID,0.107441,VALID,18.5914,VALID,140,VALID,0,
2013-07-24, 01:28:04,VALID,917.339,VALID,0,VALID,93.951,VALID,0,VALID,18.5705,VALID,156,VALID,0,
2013-07-24, 01:29:04,VALID,917.321,VALID,0,VALID,93.9434,VALID,0.107441,VALID,18.5914,VALID,151,VALID,0,
2013-07-24, 01:30:04,VALID,917.309,VALID,0,VALID,93.9662,VALID,0.107441,VALID,18.572,VALID,136,VALID,0,
2013-07-24, 01:31:04,VALID,917.318,VALID,0,VALID,94.0272,VALID,0.107441,VALID,18.5511,VALID,138,VALID,0,
2013-07-24, 01:32:04,VALID,917.308,VALID,0,VALID,94.0577,VALID,0.107441,VALID,18.5525,VALID,142,VALID,0,
2013-07-24, 01:33:04,VALID,917.309,VALID,0,VALID,94.1492,VALID,0.107441,VALID,18.572,VALID,145,VALID,0,
2013-07-24, 01:34:04,VALID,917.285,VALID,0,VALID,94.1873,VALID,0.107441,VALID,18.6109,VALID,141,VALID,0,
2013-07-24, 01:35:04,VALID,917.279,VALID,0,VALID,94.1263,VALID,0.107441,VALID,18.59,VALID,152,VALID,0,
2013-07-24, 01:36:04,VALID,917.268,VALID,0,VALID,94.1034,VALID,0.107441,VALID,18.6095,VALID,156,VALID,0,
2013-07-24, 01:37:04,VALID,917.288,VALID,0,VALID,93.951,VALID,0.107441,VALID,18.59,VALID,155,VALID,0,
2013-07-24, 01:38:04,VALID,917.291,VALID,0,VALID,93.9129,VALID,0.107441,VALID,18.5511,VALID,128,VALID,0,
2013-07-24, 01:39:04,VALID,917.275,VALID,0,VALID,93.9662,VALID,0.107441,VALID,18.5121,VALID,134,VALID,0,
2013-07-24, 01:40:04,VALID,917.246,VALID,0,VALID,93.9891,VALID,0.107441,VALID,18.4536,VALID,140,VALID,0,
2013-07-24, 01:41:04,VALID,917.231,VALID,0,VALID,94.073,VALID,0,VALID,18.416,VALID,139,VALID,0,
2013-07-24, 01:42:04,VALID,917.236,VALID,0,VALID,94.2026,VALID,0,VALID,18.3575,VALID,128,VALID,0,
2013-07-24, 01:43:04,VALID,917.174,VALID,0,VALID,94.3245,VALID,0,VALID,18.299,VALID,133,VALID,0,
2013-07-24, 01:44:04,VALID,917.203,VALID,0,VALID,94.4313,VALID,0,VALID,18.2796,VALID,130,VALID,0,
2013-07-24, 01:45:04,VALID,917.168,VALID,0,VALID,94.4846,VALID,0,VALID,18.2601,VALID,135,VALID,0,
2013-07-24, 01:46:04,VALID,917.164,VALID,0,VALID,94.5685,VALID,0,VALID,18.2406,VALID,130,VALID,0,
2013-07-24, 01:47:04,VALID,917.157,VALID,0,VALID,94.6752,VALID,0,VALID,18.2197,VALID,116,VALID,0,
2013-07-24, 01:48:04,VALID,917.153,VALID,0,VALID,94.6371,VALID,0,VALID,18.2211,VALID,143,VALID,0,
2013-07-24, 01:49:04,VALID,917.127,VALID,0,VALID,94.599,VALID,0,VALID,18.2225,VALID,127,VALID,0,
2013-07-24, 01:50:04,VALID,917.138,VALID,0,VALID,94.66,VALID,0,VALID,18.1821,VALID,134,VALID,0,
2013-07-24, 01:51:04,VALID,917.135,VALID,0,VALID,94.8124,VALID,0,VALID,18.1821,VALID,133,VALID,0,
2013-07-24, 01:52:04,VALID,917.126,VALID,0,VALID,94.8658,VALID,0,VALID,18.203,VALID,127,VALID,0,
2013-07-24, 01:53:04,VALID,917.13,VALID,0,VALID,94.8429,VALID,0,VALID,18.1821,VALID,126,VALID,0,
2013-07-24, 01:54:04,VALID,917.145,VALID,0,VALID,94.8582,VALID,0,VALID,18.203,VALID,132,VALID,0,
2013-07-24, 01:55:04,VALID,917.107,VALID,0,VALID,94.9039,VALID,0,VALID,18.1821,VALID,131,VALID,0,
2013-07-24, 01:56:04,VALID,917.129,VALID,0,VALID,94.7819,VALID,0,VALID,18.1821,VALID,131,VALID,0,
2013-07-24, 01:57:04,VALID,917.134,VALID,0,VALID,94.7362,VALID,0,VALID,18.1821,VALID,146,VALID,0,
2013-07-24, 01:58:04,VALID,917.092,VALID,0,VALID,94.7819,VALID,0,VALID,18.2016,VALID,151,VALID,0,
2013-07-24, 01:59:04,VALID,917.108,VALID,0,VALID,94.7286,VALID,0,VALID,18.2225,VALID,141,VALID,0,
2013-07-24, 02:00:04,VALID,917.103,VALID,0,VALID,94.7514,VALID,0,VALID,18.2211,VALID,136,VALID,0,
2013-07-24, 02:01:04,VALID,917.081,VALID,0,VALID,94.6676,VALID,0,VALID,18.2211,VALID,135,VALID,0,
2013-07-24, 02:02:04,VALID,917.1,VALID,0,VALID,94.538,VALID,0,VALID,18.2615,VALID,118,VALID,0,
2013-07-24, 02:03:04,VALID,917.063,VALID,0,VALID,94.416,VALID,0,VALID,18.242,VALID,148,VALID,0,
2013-07-24, 02:04:04,VALID,917.042,VALID,0,VALID,94.3931,VALID,0,VALID,18.2211,VALID,163,VALID,0,
2013-07-24, 02:05:04,VALID,917.063,VALID,0,VALID,94.294,VALID,0,VALID,18.2211,VALID,174,VALID,0,
2013-07-24, 02:06:04,VALID,917.04,VALID,0,VALID,94.2712,VALID,0,VALID,18.2211,VALID,138,VALID,0,
2013-07-24, 02:07:04,VALID,917.001,VALID,0,VALID,94.1949,VALID,0,VALID,18.2211,VALID,133,VALID,0,
2013-07-24, 02:08:04,VALID,916.966,VALID,0,VALID,94.2026,VALID,0,VALID,18.2211,VALID,136,VALID,0,
2013-07-24, 02:09:04,VALID,916.979,VALID,0,VALID,94.2559,VALID,0,VALID,18.2406,VALID,140,VALID,0,
2013-07-24, 02:10:04,VALID,916.96,VALID,0,VALID,94.294,VALID,0,VALID,18.2601,VALID,139,VALID,0,
2013-07-24, 02:11:04,VALID,916.917,VALID,0,VALID,94.2788,VALID,0,VALID,18.3004,VALID,131,VALID,0,
2013-07-24, 02:12:04,VALID,916.923,VALID,0,VALID,94.1568,VALID,0,VALID,18.3394,VALID,136,VALID,0,
2013-07-24, 02:13:04,VALID,916.905,VALID,0,VALID,94.0425,VALID,0,VALID,18.299,VALID,137,VALID,0,
2013-07-24, 02:14:04,VALID,916.877,VALID,0,VALID,93.9967,VALID,0,VALID,18.3394,VALID,165,VALID,0,
2013-07-24, 02:15:04,VALID,916.847,VALID,0,VALID,93.8976,VALID,0,VALID,18.3185,VALID,162,VALID,0,
2013-07-24, 02:16:04,VALID,916.836,VALID,0,VALID,93.7909,VALID,0,VALID,18.3004,VALID,133,VALID,0,
2013-07-24, 02:17:04,VALID,916.797,VALID,0,VALID,93.7833,VALID,0,VALID,18.2796,VALID,138,VALID,0,
2013-07-24, 02:18:04,VALID,916.799,VALID,0,VALID,93.7223,VALID,0,VALID,18.2601,VALID,133,VALID,0,
2013-07-24, 02:19:04,VALID,916.804,VALID,0,VALID,93.6003,VALID,0,VALID,18.2016,VALID,131,VALID,0,
2013-07-24, 02:20:04,VALID,916.792,VALID,0,VALID,93.6918,VALID,0,VALID,18.1626,VALID,125,VALID,0,
2013-07-24, 02:21:04,VALID,916.799,VALID,0,VALID,93.8214,VALID,0,VALID,18.1417,VALID,129,VALID,0,
2013-07-24, 02:22:04,VALID,916.794,VALID,0,VALID,93.8824,VALID,0,VALID,18.1041,VALID,147,VALID,0,
2013-07-24, 02:23:04,VALID,916.775,VALID,0,VALID,94.0501,VALID,0,VALID,18.1236,VALID,119,VALID,0,
2013-07-24, 02:24:04,VALID,916.763,VALID,0,VALID,94.1263,VALID,0,VALID,18.0846,VALID,130,VALID,0,
2013-07-24, 02:25:04,VALID,916.739,VALID,0,VALID,94.2864,VALID,0,VALID,18.1055,VALID,132,VALID,0,
2013-07-24, 02:26:04,VALID,916.693,VALID,0,VALID,94.4313,VALID,0,VALID,18.0846,VALID,187,VALID,0,
2013-07-24, 02:27:04,VALID,916.708,VALID,0,VALID,94.538,VALID,0,VALID,18.0846,VALID,162,VALID,0,
2013-07-24, 02:28:04,VALID,916.712,VALID,0,VALID,94.6066,VALID,0,VALID,18.1041,VALID,148,VALID,0,
2013-07-24, 02:29:04,VALID,916.707,VALID,0,VALID,94.599,VALID,0,VALID,18.1055,VALID,149,VALID,0,
2013-07-24, 02:30:04,VALID,916.67,VALID,0,VALID,94.5761,VALID,0,VALID,18.0846,VALID,150,VALID,0,
2013-07-24, 02:31:04,VALID,916.66,VALID,0,VALID,94.5837,VALID,0,VALID,18.0846,VALID,150,VALID,0,
2013-07-24, 02:32:04,VALID,916.685,VALID,0,VALID,94.5837,VALID,0,VALID,18.086,VALID,149,VALID,0,
2013-07-24, 02:33:04,VALID,916.667,VALID,0,VALID,94.7286,VALID,0,VALID,18.0846,VALID,143,VALID,0,
2013-07-24, 02:34:04,VALID,916.686,VALID,0,VALID,94.9039,VALID,0,VALID,18.1431,VALID,124,VALID,0,
2013-07-24, 02:35:04,VALID,916.713,VALID,0,VALID,94.6828,VALID,0,VALID,18.1431,VALID,116,VALID,0,
2013-07-24, 02:36:04,VALID,916.687,VALID,0,VALID,94.5913,VALID,0,VALID,18.1431,VALID,118,VALID,0,
2013-07-24, 02:37:04,VALID,916.679,VALID,0,VALID,94.5913,VALID,0,VALID,18.1236,VALID,124,VALID,0,
2013-07-24, 02:38:04,VALID,916.69,VALID,0,VALID,94.5304,VALID,0,VALID,18.1236,VALID,125,VALID,0,
2013-07-24, 02:39:04,VALID,916.71,VALID,0,VALID,94.4617,VALID,0,VALID,18.1041,VALID,134,VALID,0,
2013-07-24, 02:40:04,VALID,916.713,VALID,0,VALID,94.4236,VALID,0,VALID,18.0846,VALID,127,VALID,0,
2013-07-24, 02:41:04,VALID,916.677,VALID,0,VALID,94.3626,VALID,0,VALID,18.0262,VALID,120,VALID,0,
2013-07-24, 02:42:04,VALID,916.655,VALID,0,VALID,94.2635,VALID,0,VALID,17.9482,VALID,106,VALID,0,
2013-07-24, 02:43:04,VALID,916.653,VALID,0,VALID,94.4846,VALID,0,VALID,17.8897,VALID,106,VALID,0,
2013-07-24, 02:44:04,VALID,916.673,VALID,0,VALID,94.477,VALID,0,VALID,17.8313,VALID,106,VALID,0,
2013-07-24, 02:45:04,VALID,916.647,VALID,0,VALID,94.82,VALID,0,VALID,17.8118,VALID,106,VALID,0,
2013-07-24, 02:46:04,VALID,916.616,VALID,0,VALID,94.8277,VALID,0,VALID,17.7533,VALID,106,VALID,0,
2013-07-24, 02:47:04,VALID,916.625,VALID,0,VALID,95.0335,VALID,0,VALID,17.7338,VALID,106,VALID,0,
2013-07-24, 02:48:04,VALID,916.629,VALID,0,VALID,95.0945,VALID,0,VALID,17.7338,VALID,91,VALID,0,
2013-07-24, 02:49:04,VALID,916.644,VALID,0,VALID,95.0792,VALID,0,VALID,17.7143,VALID,93,VALID,0,
2013-07-24, 02:50:04,VALID,916.632,VALID,0,VALID,95.2088,VALID,0,VALID,17.7338,VALID,117,VALID,0,
2013-07-24, 02:51:04,VALID,916.642,VALID,0,VALID,94.9801,VALID,0,VALID,17.7157,VALID,107,VALID,0,
2013-07-24, 02:52:04,VALID,916.658,VALID,0,VALID,94.9725,VALID,0,VALID,17.6559,VALID,112,VALID,0,
2013-07-24, 02:53:04,VALID,916.672,VALID,0,VALID,95.003,VALID,0,VALID,17.6364,VALID,112,VALID,0,
2013-07-24, 02:54:04,VALID,916.657,VALID,0,VALID,95.0183,VALID,0,VALID,17.6169,VALID,169,VALID,0,
2013-07-24, 02:55:04,VALID,916.657,VALID,0,VALID,95.0259,VALID,0,VALID,17.5974,VALID,169,VALID,0,
2013-07-24, 02:56:04,VALID,916.635,VALID,0,VALID,94.9878,VALID,0,VALID,17.5792,VALID,149,VALID,0,
2013-07-24, 02:57:04,VALID,916.605,VALID,0,VALID,95.2546,VALID,0,VALID,17.5974,VALID,129,VALID,0,
2013-07-24, 02:58:05,VALID,916.603,VALID,0,VALID,95.1707,VALID,0,VALID,17.6377,VALID,130,VALID,0,
2013-07-24, 02:59:05,VALID,916.554,VALID,0,VALID,95.2622,VALID,0,VALID,17.6754,VALID,137,VALID,0,
2013-07-24, 03:00:05,VALID,916.552,VALID,0,VALID,95.3232,VALID,0,VALID,17.7338,VALID,139,VALID,0,
2013-07-24, 03:01:05,VALID,916.56,VALID,0,VALID,95.2927,VALID,0,VALID,17.8326,VALID,157,VALID,0,
2013-07-24, 03:02:05,VALID,916.574,VALID,0,VALID,95.1326,VALID,0,VALID,17.8897,VALID,145,VALID,0,
2013-07-24, 03:03:05,VALID,916.539,VALID,0,VALID,94.8124,VALID,0,VALID,17.9301,VALID,162,VALID,0,
2013-07-24, 03:04:05,VALID,916.559,VALID,0,VALID,94.7972,VALID,0,VALID,17.9886,VALID,184,VALID,0,
2013-07-24, 03:05:05,VALID,916.552,VALID,0,VALID,94.6981,VALID,0,VALID,18.0262,VALID,176,VALID,0,
2013-07-24, 03:06:05,VALID,916.517,VALID,0,VALID,94.5685,VALID,0,VALID,18.0651,VALID,161,VALID,0,
2013-07-24, 03:07:05,VALID,916.47,VALID,0,VALID,94.3779,VALID,0,VALID,18.1041,VALID,152,VALID,0,
2013-07-24, 03:08:05,VALID,916.48,VALID,0,VALID,94.2407,VALID,0,VALID,18.1431,VALID,166,VALID,0,
2013-07-24, 03:09:05,VALID,916.433,VALID,0,VALID,94.1111,VALID,0,VALID,18.1835,VALID,151,VALID,0,
2013-07-24, 03:10:05,VALID,916.41,VALID,0,VALID,94.0272,VALID,0,VALID,18.2211,VALID,146,VALID,0,
2013-07-24, 03:11:05,VALID,916.396,VALID,0,VALID,93.9129,VALID,0,VALID,18.2406,VALID,140,VALID,0,
2013-07-24, 03:12:05,VALID,916.38,VALID,0,VALID,93.7985,VALID,0,VALID,18.2628,VALID,167,VALID,0,
2013-07-24, 03:13:05,VALID,916.36,VALID,0,VALID,93.7604,VALID,0,VALID,18.2615,VALID,151,VALID,0,
2013-07-24, 03:14:05,VALID,916.359,VALID,0,VALID,93.707,VALID,0,VALID,18.2809,VALID,152,VALID,0,
2013-07-24, 03:15:05,VALID,916.347,VALID,0,VALID,93.646,VALID,0,VALID,18.2809,VALID,133,VALID,0,
2013-07-24, 03:16:05,VALID,916.345,VALID,0,VALID,93.5774,VALID,0,VALID,18.3213,VALID,142,VALID,0,
2013-07-24, 03:17:05,VALID,916.349,VALID,0,VALID,93.5088,VALID,0,VALID,18.3408,VALID,150,VALID,0,
2013-07-24, 03:18:05,VALID,916.383,VALID,0,VALID,93.425,VALID,0,VALID,18.3199,VALID,135,VALID,0,
2013-07-24, 03:19:05,VALID,916.357,VALID,0,VALID,93.3564,VALID,0,VALID,18.3004,VALID,150,VALID,0,
2013-07-24, 03:20:05,VALID,916.391,VALID,0,VALID,93.2725,VALID,0,VALID,18.3018,VALID,142,VALID,0,
2013-07-24, 03:21:05,VALID,916.366,VALID,0,VALID,93.2877,VALID,0,VALID,18.2615,VALID,163,VALID,0,
2013-07-24, 03:22:05,VALID,916.384,VALID,0,VALID,93.2725,VALID,0,VALID,18.2225,VALID,157,VALID,0,
2013-07-24, 03:23:05,VALID,916.377,VALID,0,VALID,93.4097,VALID,0,VALID,18.203,VALID,130,VALID,0,
2013-07-24, 03:24:05,VALID,916.364,VALID,0,VALID,93.5241,VALID,0,VALID,18.203,VALID,144,VALID,0,
2013-07-24, 03:25:05,VALID,916.355,VALID,0,VALID,93.6155,VALID,0,VALID,18.1835,VALID,139,VALID,0,
2013-07-24, 03:26:05,VALID,916.377,VALID,0,VALID,93.7833,VALID,0,VALID,18.1835,VALID,137,VALID,0,
2013-07-24, 03:27:05,VALID,916.371,VALID,0,VALID,93.9967,VALID,0,VALID,18.1821,VALID,144,VALID,0,
2013-07-24, 03:28:05,VALID,916.356,VALID,0,VALID,94.1492,VALID,0,VALID,18.2016,VALID,128,VALID,0,
2013-07-24, 03:29:05,VALID,916.348,VALID,0,VALID,94.233,VALID,0,VALID,18.2406,VALID,129,VALID,0,
2013-07-24, 03:30:05,VALID,916.326,VALID,0,VALID,94.2712,VALID,0,VALID,18.2406,VALID,139,VALID,0,
2013-07-24, 03:31:05,VALID,916.325,VALID,0,VALID,94.2483,VALID,0.107441,VALID,18.2601,VALID,120,VALID,0,
2013-07-24, 03:32:05,VALID,916.327,VALID,0,VALID,94.2178,VALID,0,VALID,18.299,VALID,128,VALID,0,
2013-07-24, 03:33:05,VALID,916.329,VALID,0,VALID,94.2864,VALID,0,VALID,18.3185,VALID,129,VALID,0,
2013-07-24, 03:34:05,VALID,916.337,VALID,0,VALID,94.1111,VALID,0,VALID,18.338,VALID,132,VALID,0,
2013-07-24, 03:35:05,VALID,916.344,VALID,0,VALID,93.9434,VALID,0,VALID,18.338,VALID,132,VALID,0,
2013-07-24, 03:36:05,VALID,916.363,VALID,0,VALID,93.829,VALID,0,VALID,18.299,VALID,108,VALID,0,
2013-07-24, 03:37:05,VALID,916.351,VALID,0,VALID,93.8061,VALID,0,VALID,18.299,VALID,136,VALID,0,
2013-07-24, 03:38:05,VALID,916.345,VALID,0,VALID,93.8061,VALID,0,VALID,18.2796,VALID,125,VALID,0,
2013-07-24, 03:39:05,VALID,916.351,VALID,0,VALID,93.8747,VALID,0.107441,VALID,18.299,VALID,117,VALID,0,
2013-07-24, 03:40:05,VALID,916.326,VALID,0,VALID,93.8366,VALID,0,VALID,18.2809,VALID,135,VALID,0,
2013-07-24, 03:41:05,VALID,916.307,VALID,0,VALID,94.0425,VALID,0,VALID,18.2796,VALID,129,VALID,0,
2013-07-24, 03:42:05,VALID,916.31,VALID,0,VALID,94.0272,VALID,0.107441,VALID,18.299,VALID,116,VALID,0,
2013-07-24, 03:43:05,VALID,916.292,VALID,0,VALID,93.9738,VALID,0.107441,VALID,18.299,VALID,126,VALID,0,
2013-07-24, 03:44:05,VALID,916.321,VALID,0,VALID,93.8366,VALID,0.107441,VALID,18.2796,VALID,138,VALID,0,
2013-07-24, 03:45:05,VALID,916.285,VALID,0,VALID,93.707,VALID,0.107441,VALID,18.2406,VALID,138,VALID,0,
2013-07-24, 03:46:05,VALID,916.267,VALID,0,VALID,93.6079,VALID,0,VALID,18.2211,VALID,159,VALID,0,
2013-07-24, 03:47:05,VALID,916.257,VALID,0,VALID,93.4859,VALID,0.107441,VALID,18.2016,VALID,149,VALID,0,
2013-07-24, 03:48:05,VALID,916.271,VALID,0,VALID,93.3868,VALID,0,VALID,18.1626,VALID,151,VALID,0,
2013-07-24, 03:49:05,VALID,916.3,VALID,0,VALID,93.4021,VALID,0.107441,VALID,18.1626,VALID,164,VALID,0,
2013-07-24, 03:50:05,VALID,916.295,VALID,0,VALID,93.4326,VALID,0,VALID,18.1431,VALID,168,VALID,0,
2013-07-24, 03:51:05,VALID,916.278,VALID,0,VALID,93.4859,VALID,0,VALID,18.1236,VALID,161,VALID,0,
2013-07-24, 03:52:05,VALID,916.307,VALID,0,VALID,93.5088,VALID,0,VALID,18.1041,VALID,160,VALID,0,
2013-07-24, 03:53:05,VALID,916.277,VALID,0,VALID,93.5851,VALID,0,VALID,18.1041,VALID,163,VALID,0,
2013-07-24, 03:54:05,VALID,916.272,VALID,0,VALID,93.6003,VALID,0,VALID,18.1041,VALID,171,VALID,0,
2013-07-24, 03:55:05,VALID,916.239,VALID,0,VALID,93.5317,VALID,0,VALID,18.0457,VALID,165,VALID,0,
2013-07-24, 03:56:05,VALID,916.239,VALID,0,VALID,93.5774,VALID,0,VALID,18.0262,VALID,163,VALID,0,
2013-07-24, 03:57:05,VALID,916.256,VALID,0,VALID,93.6384,VALID,0,VALID,18.0067,VALID,163,VALID,0,
2013-07-24, 03:58:05,VALID,916.262,VALID,0,VALID,93.6842,VALID,0,VALID,18.008,VALID,156,VALID,0,